Flag for Australia Weather past 2 weeks in Sydney, New South Wales, Australia

Now
54 °F

Passing clouds.


Feels Like: 52 °F
Forecast: 56 / 64 °F
Wind: 7 mph from Northwest

Location: Sydney Airport

Current Time: Apr 29, 2015 at 1:04:32 AM

Latest Report: Apr 29, 2015 at 12:30 AM


Visibility: N/A

Pressure: 30.33 "Hg

Humidity: 88%

Dew point: 50 °F

Location of SydneyLocation

Historic Weather in Sydney — Graph

°F

Sydney temperature yesterday

Maximum temperature yesterday: 64 °F (at 11:00 AM)
Minimum temperature yesterday: 52 °F (at 4:30 AM)
Average temperature yesterday: 60 °F

Past Weeks' High & Low Weather Summary

 TemperatureHumidityPressure
High90 °F (Apr 16, 2:00 PM)100% (Apr 20, 9:00 AM)30.33 "Hg (Apr 20, 9:00 AM)
Low52 °F (Apr 28, 4:30 AM)27% (Apr 16, 2:30 PM)29.65 "Hg (Apr 24, 1:30 PM)
Average65 °F76%30.02 "Hg
* Reported Apr 13 11:00 PM — Apr 28 11:30 PM, Sydney, Weather by CustomWeather, © 2015

Note: Actual official high and low records may vary slightly from our data, if they occured in-between our weather recording intervals... More about our weather records

Advertising

Sydney weather history for previous 24 hours

 ConditionsComfort  
Time TempWeatherWind HumidityBarometerVisibility
11:30 PM
Tue, Apr 28
61 °FClear.13 mph77%30.33 "Hg10 mi
11:00 PM61 °FPassing clouds.10 mph77%30.33 "HgN/A
10:30 PM59 °FSprinkles. Passing clouds.15 mph82%30.33 "HgN/A
10:00 PM63 °FSprinkles. Passing clouds.16 mph73%30.33 "HgN/A
9:30 PM63 °FScattered showers. Passing clouds.13 mph64%30.33 "HgN/A
9:00 PM63 °FPassing clouds.13 mph64%30.33 "HgN/A
8:30 PM63 °FPassing clouds.14 mph59%30.33 "HgN/A
8:00 PM63 °FPassing clouds.13 mph59%30.30 "HgN/A
7:30 PM63 °FPassing clouds.16 mph59%30.30 "HgN/A
7:00 PM63 °FPassing clouds.14 mph59%30.30 "HgN/A
6:30 PM63 °FPassing clouds.16 mph64%30.30 "HgN/A
6:00 PM63 °FPassing clouds.16 mph59%30.27 "HgN/A
5:30 PM64 °FPassing clouds.15 mph56%30.27 "HgN/A
5:00 PM64 °FPassing clouds.15 mph60%30.27 "HgN/A
4:30 PM64 °FPassing clouds.16 mph56%30.27 "HgN/A
4:00 PM64 °FPassing clouds.16 mph60%30.24 "HgN/A
3:30 PM64 °FPassing clouds.17 mph60%30.24 "HgN/A
3:00 PM64 °FPassing clouds.18 mph52%30.24 "HgN/A
2:30 PM64 °FPassing clouds.18 mph56%30.24 "HgN/A
1:30 PM64 °FPassing clouds.18 mph56%30.24 "HgN/A
1:00 PM64 °FPassing clouds.18 mph60%30.27 "HgN/A
12:30 PM64 °FPassing clouds.16 mph52%30.27 "HgN/A
12:00 PM64 °FPassing clouds.16 mph56%30.27 "HgN/A
11:30 AM64 °FPassing clouds.17 mph52%30.27 "HgN/A
11:00 AM64 °FPassing clouds.16 mph56%30.30 "HgN/A
10:30 AM63 °FPassing clouds.17 mph59%30.30 "HgN/A
10:00 AM63 °FPassing clouds.16 mph59%30.30 "HgN/A
9:30 AM61 °FPassing clouds.6 mph59%30.30 "HgN/A
9:00 AM61 °FPassing clouds.8 mph55%30.30 "HgN/A
8:30 AM59 °FScattered clouds.8 mph55%30.30 "HgN/A
8:00 AM57 °FPartly sunny.8 mph59%30.27 "HgN/A
7:00 AM54 °FScattered clouds.10 mph67%30.24 "HgN/A
6:30 AM52 °FScattered clouds.9 mph77%30.24 "HgN/A
6:00 AM52 °FScattered clouds.10 mph72%30.24 "HgN/A
5:30 AM52 °FPassing clouds.8 mph77%30.21 "HgN/A
5:00 AM52 °FPassing clouds.8 mph77%30.21 "HgN/A
4:30 AM52 °FPassing clouds.8 mph77%30.21 "HgN/A
4:00 AM54 °FPassing clouds.8 mph72%30.18 "HgN/A
3:30 AM54 °FPassing clouds.8 mph72%30.18 "HgN/A
3:00 AM55 °FPassing clouds.8 mph67%30.18 "HgN/A
2:30 AM55 °FPassing clouds.10 mph67%30.18 "HgN/A
2:00 AM55 °FPassing clouds.12 mph63%30.18 "HgN/A
1:30 AM55 °FPassing clouds.8 mph67%30.18 "HgN/A
1:00 AM55 °FPassing clouds.7 mph67%30.18 "HgN/A
Weather by CustomWeather, © 2015

See weather overviewHow to use our weather pages